Time,TemperatureF,DewpointF,PressureIn,WindDirection,WindDirectionDegrees,WindSpeedMPH,WindSpeedGustMPH,Humidity,HourlyPrecipIn,Conditions,Clouds,dailyrainin,SoftwareType,DateUTC
2013-05-13 00:03:00,35.6,30.4,29.82,ENE,67,0.0,-999.0,81,-99.99,,,0.00,Acu-Link.com,2013-05-13 04:03:00,
2013-05-13 00:18:00,35.6,31.3,29.82,ESE,112,0.0,-999.0,84,-99.99,,,0.00,Acu-Link.com,2013-05-13 04:18:00,
2013-05-13 00:33:00,35.1,30.8,29.82,ENE,67,0.0,-999.0,84,-99.99,,,0.00,Acu-Link.com,2013-05-13 04:33:00,
2013-05-13 00:48:00,34.7,30.7,29.82,WNW,292,2.7,-999.0,85,-99.99,,,0.00,Acu-Link.com,2013-05-13 04:48:00,
2013-05-13 01:03:00,34.9,31.1,29.83,NNE,22,0.0,-999.0,86,-99.99,,,0.00,Acu-Link.com,2013-05-13 05:03:00,
2013-05-13 01:18:00,35.2,32.0,29.83,West,270,0.0,-999.0,88,-99.99,,,0.00,Acu-Link.com,2013-05-13 05:18:00,
2013-05-13 01:34:00,34.7,31.5,29.83,NE,45,2.2,-999.0,88,-99.99,,,0.00,Acu-Link.com,2013-05-13 05:34:00,
2013-05-13 01:49:00,37.6,30.1,29.84,NE,45,3.7,-999.0,74,-99.99,,,0.00,Acu-Link.com,2013-05-13 05:49:00,
2013-05-13 02:04:00,39.6,29.9,29.84,SE,135,2.2,-999.0,68,-99.99,,,0.00,Acu-Link.com,2013-05-13 06:04:00,
2013-05-13 02:19:00,39.6,29.9,29.85,West,270,2.7,-999.0,68,-99.99,,,0.00,Acu-Link.com,2013-05-13 06:19:00,
2013-05-13 02:34:00,40.6,27.8,29.84,ENE,67,7.8,-999.0,60,-99.99,,,0.00,Acu-Link.com,2013-05-13 06:34:00,
2013-05-13 02:49:00,40.6,27.4,29.84,NE,45,3.2,-999.0,59,-99.99,,,0.00,Acu-Link.com,2013-05-13 06:49:00,
2013-05-13 03:04:00,40.6,28.6,29.84,West,270,0.0,-999.0,62,-99.99,,,0.00,Acu-Link.com,2013-05-13 07:04:00,
2013-05-13 03:19:00,39.4,28.3,29.84,SSW,202,1.7,-999.0,64,-99.99,,,0.00,Acu-Link.com,2013-05-13 07:19:00,
2013-05-13 03:34:00,39.0,28.2,29.85,West,270,2.7,-999.0,65,-99.99,,,0.00,Acu-Link.com,2013-05-13 07:34:00,
2013-05-13 03:50:00,39.2,24.8,29.85,WSW,247,4.7,-999.0,56,-99.99,,,0.00,Acu-Link.com,2013-05-13 07:50:00,
2013-05-13 04:05:00,39.0,24.2,29.86,NE,45,1.7,-999.0,55,-99.99,,,0.00,Acu-Link.com,2013-05-13 08:05:00,
2013-05-13 04:20:00,39.0,24.7,29.86,East,90,2.7,-999.0,56,-99.99,,,0.00,Acu-Link.com,2013-05-13 08:20:00,
2013-05-13 04:35:00,37.4,25.6,29.86,West,270,1.1,-999.0,62,-99.99,,,0.00,Acu-Link.com,2013-05-13 08:35:00,
2013-05-13 04:51:00,35.6,25.7,29.87,NNE,22,3.2,-999.0,67,-99.99,,,0.00,Acu-Link.com,2013-05-13 08:51:00,
2013-05-13 05:06:00,35.1,26.7,29.87,NNE,22,1.7,-999.0,71,-99.99,,,0.00,Acu-Link.com,2013-05-13 09:06:00,
2013-05-13 05:21:00,34.0,26.9,29.88,NE,45,0.0,-999.0,75,-99.99,,,0.00,Acu-Link.com,2013-05-13 09:21:00,
2013-05-13 05:36:00,33.1,26.7,29.88,NW,315,0.0,-999.0,77,-99.99,,,0.00,Acu-Link.com,2013-05-13 09:36:00,
2013-05-13 05:51:00,32.5,27.3,29.88,SE,135,0.0,-999.0,81,-99.99,,,0.00,Acu-Link.com,2013-05-13 09:51:00,
2013-05-13 06:06:00,31.5,27.5,29.88,SE,135,1.1,-999.0,85,-99.99,,,0.00,Acu-Link.com,2013-05-13 10:06:00,
2013-05-13 06:21:00,31.5,27.8,29.88,East,90,0.0,-999.0,86,-99.99,,,0.00,Acu-Link.com,2013-05-13 10:21:00,
2013-05-13 06:36:00,32.0,28.3,29.89,SE,135,0.0,-999.0,86,-99.99,,,0.00,Acu-Link.com,2013-05-13 10:36:00,
2013-05-13 06:51:00,32.0,28.3,29.89,ENE,67,0.0,-999.0,86,-99.99,,,0.00,Acu-Link.com,2013-05-13 10:51:00,
2013-05-13 07:07:00,32.5,28.5,29.89,East,90,1.7,-999.0,85,-99.99,,,0.00,Acu-Link.com,2013-05-13 11:07:00,
2013-05-13 07:22:00,34.5,28.7,29.89,NNE,22,0.0,-999.0,79,-99.99,,,0.00,Acu-Link.com,2013-05-13 11:22:00,
2013-05-13 07:37:00,37.2,28.7,29.90,ESE,112,2.2,-999.0,71,-99.99,,,0.00,Acu-Link.com,2013-05-13 11:37:00,
2013-05-13 07:52:00,38.7,27.2,29.90,NE,45,2.7,-999.0,63,-99.99,,,0.00,Acu-Link.com,2013-05-13 11:52:00,
2013-05-13 08:07:00,39.7,25.7,29.90,NE,45,3.2,-999.0,57,-99.99,,,0.00,Acu-Link.com,2013-05-13 12:07:00,
2013-05-13 08:22:00,41.0,27.4,29.88,SSW,202,4.7,-999.0,58,-99.99,,,0.00,Acu-Link.com,2013-05-13 12:22:00,
2013-05-13 08:37:00,42.4,26.5,29.89,West,270,5.3,-999.0,53,-99.99,,,0.00,Acu-Link.com,2013-05-13 12:37:00,
2013-05-13 08:52:00,42.1,24.3,29.90,NE,45,3.2,-999.0,49,-99.99,,,0.00,Acu-Link.com,2013-05-13 12:52:00,
2013-05-13 09:07:00,42.3,24.0,29.91,West,270,2.2,-999.0,48,-99.99,,,0.00,Acu-Link.com,2013-05-13 13:07:00,
2013-05-13 09:23:00,42.4,24.1,29.91,West,270,8.9,-999.0,48,-99.99,,,0.00,Acu-Link.com,2013-05-13 13:23:00,
2013-05-13 09:38:00,43.5,26.6,29.92,West,270,6.3,-999.0,51,-99.99,,,0.00,Acu-Link.com,2013-05-13 13:38:00,
2013-05-13 09:53:00,43.9,27.4,29.91,NE,45,5.3,-999.0,52,-99.99,,,0.00,Acu-Link.com,2013-05-13 13:53:00,
2013-05-13 10:08:00,44.1,26.7,29.91,East,90,3.7,-999.0,50,-99.99,,,0.00,Acu-Link.com,2013-05-13 14:08:00,
2013-05-13 10:23:00,46.9,27.7,29.91,South,180,1.7,-999.0,47,-99.99,,,0.00,Acu-Link.com,2013-05-13 14:23:00,
2013-05-13 10:38:00,45.5,26.5,29.91,ENE,67,3.2,-999.0,47,-99.99,,,0.00,Acu-Link.com,2013-05-13 14:38:00,
2013-05-13 10:53:00,45.5,24.3,29.92,South,180,6.3,-999.0,43,-99.99,,,0.00,Acu-Link.com,2013-05-13 14:53:00,
2013-05-13 11:08:00,45.3,23.6,29.92,ENE,67,4.7,-999.0,42,-99.99,,,0.00,Acu-Link.com,2013-05-13 15:08:00,
2013-05-13 11:23:00,46.0,24.2,29.92,ESE,112,3.7,-999.0,42,-99.99,,,0.00,Acu-Link.com,2013-05-13 15:23:00,
2013-05-13 11:39:00,45.5,23.8,29.93,NE,45,9.4,-999.0,42,-99.99,,,0.00,Acu-Link.com,2013-05-13 15:39:00,
2013-05-13 11:54:00,47.3,27.0,29.92,NNE,22,5.3,-999.0,45,-99.99,,,0.00,Acu-Link.com,2013-05-13 15:54:00,
2013-05-13 12:09:00,46.2,25.0,29.93,WSW,247,7.8,-999.0,43,-99.99,,,0.00,Acu-Link.com,2013-05-13 16:09:00,
2013-05-13 12:24:00,47.1,25.8,29.93,WNW,292,3.2,-999.0,43,-99.99,,,0.00,Acu-Link.com,2013-05-13 16:24:00,
2013-05-13 12:39:00,47.3,25.4,29.93,NE,45,5.8,-999.0,42,-99.99,,,0.00,Acu-Link.com,2013-05-13 16:39:00,
2013-05-13 12:54:00,48.4,25.8,29.92,East,90,4.2,-999.0,41,-99.99,,,0.00,Acu-Link.com,2013-05-13 16:54:00,
2013-05-13 13:10:00,46.9,25.6,29.93,West,270,9.4,-999.0,43,-99.99,,,0.00,Acu-Link.com,2013-05-13 17:10:00,
2013-05-13 13:25:00,49.5,25.6,29.92,SE,135,2.7,-999.0,39,-99.99,,,0.00,Acu-Link.com,2013-05-13 17:25:00,
2013-05-13 13:40:00,48.6,24.2,29.91,ENE,67,1.7,-999.0,38,-99.99,,,0.00,Acu-Link.com,2013-05-13 17:40:00,
2013-05-13 13:55:00,49.1,25.8,29.91,East,90,2.7,-999.0,40,-99.99,,,0.00,Acu-Link.com,2013-05-13 17:55:00,
2013-05-13 14:10:00,49.5,26.2,29.91,West,270,5.8,-999.0,40,-99.99,,,0.00,Acu-Link.com,2013-05-13 18:10:00,
2013-05-13 14:25:00,50.4,27.6,29.91,ENE,67,8.9,-999.0,41,-99.99,,,0.00,Acu-Link.com,2013-05-13 18:25:00,
2013-05-13 14:40:00,49.1,26.4,29.91,ESE,112,3.2,-999.0,41,-99.99,,,0.00,Acu-Link.com,2013-05-13 18:40:00,
2013-05-13 14:55:00,49.1,25.2,29.91,ESE,112,2.7,-999.0,39,-99.99,,,0.00,Acu-Link.com,2013-05-13 18:55:00,
2013-05-13 15:10:00,50.2,26.8,29.90,West,270,2.7,-999.0,40,-99.99,,,0.00,Acu-Link.com,2013-05-13 19:10:00,
2013-05-13 15:26:00,50.2,24.9,29.90,NE,45,2.7,-999.0,37,-99.99,,,0.00,Acu-Link.com,2013-05-13 19:26:00,
2013-05-13 15:41:00,50.0,25.4,29.90,WNW,292,6.8,-999.0,38,-99.99,,,0.00,Acu-Link.com,2013-05-13 19:41:00,
2013-05-13 15:56:00,50.9,26.2,29.90,ENE,67,6.3,-999.0,38,-99.99,,,0.00,Acu-Link.com,2013-05-13 19:56:00,
2013-05-13 16:11:00,50.2,25.6,29.90,NE,45,8.3,-999.0,38,-99.99,,,0.00,Acu-Link.com,2013-05-13 20:11:00,
2013-05-13 16:26:00,51.4,25.4,29.90,NNE,22,4.2,-999.0,36,-99.99,,,0.00,Acu-Link.com,2013-05-13 20:26:00,
2013-05-13 16:41:00,51.6,26.2,29.90,East,90,4.2,-999.0,37,-99.99,,,0.00,Acu-Link.com,2013-05-13 20:41:00,
2013-05-13 16:56:00,50.2,24.9,29.90,NE,45,4.7,-999.0,37,-99.99,,,0.00,Acu-Link.com,2013-05-13 20:56:00,
2013-05-13 17:11:00,50.2,26.2,29.90,East,90,3.2,-999.0,39,-99.99,,,0.00,Acu-Link.com,2013-05-13 21:11:00,
2013-05-13 17:26:00,49.6,26.3,29.91,East,90,7.8,-999.0,40,-99.99,,,0.00,Acu-Link.com,2013-05-13 21:26:00,
2013-05-13 17:42:00,50.0,27.2,29.91,SSE,157,2.7,-999.0,41,-99.99,,,0.00,Acu-Link.com,2013-05-13 21:42:00,
2013-05-13 17:57:00,50.5,26.5,29.90,ESE,112,5.8,-999.0,39,-99.99,,,0.00,Acu-Link.com,2013-05-13 21:57:00,
2013-05-13 18:12:00,52.5,27.6,29.91,ENE,67,3.2,-999.0,38,-99.99,,,0.00,Acu-Link.com,2013-05-13 22:12:00,
2013-05-13 18:27:00,50.2,27.4,29.91,ENE,67,3.7,-999.0,41,-99.99,,,0.00,Acu-Link.com,2013-05-13 22:27:00,
2013-05-13 18:42:00,51.6,28.1,29.91,East,90,2.7,-999.0,40,-99.99,,,0.00,Acu-Link.com,2013-05-13 22:42:00,
2013-05-13 18:57:00,52.2,28.0,29.92,West,270,2.7,-999.0,39,-99.99,,,0.00,Acu-Link.com,2013-05-13 22:57:00,
2013-05-13 19:12:00,50.9,27.4,29.92,ENE,67,3.7,-999.0,40,-99.99,,,0.00,Acu-Link.com,2013-05-13 23:12:00,
2013-05-13 19:27:00,48.4,28.0,29.93,NNE,22,2.2,-999.0,45,-99.99,,,0.00,Acu-Link.com,2013-05-13 23:27:00,
2013-05-13 19:42:00,47.1,26.9,29.93,SE,135,7.3,-999.0,45,-99.99,,,0.00,Acu-Link.com,2013-05-13 23:42:00,
2013-05-13 19:58:00,46.6,27.5,29.94,WSW,247,4.2,-999.0,47,-99.99,,,0.00,Acu-Link.com,2013-05-13 23:58:00,
2013-05-13 20:13:00,45.9,27.3,29.95,ESE,112,3.7,-999.0,48,-99.99,,,0.00,Acu-Link.com,2013-05-14 00:13:00,
2013-05-13 20:28:00,45.1,26.6,29.95,WSW,247,2.2,-999.0,48,-99.99,,,0.00,Acu-Link.com,2013-05-14 00:28:00,
2013-05-13 20:43:00,44.6,26.6,29.96,NNE,22,4.2,-999.0,49,-99.99,,,0.00,Acu-Link.com,2013-05-14 00:43:00,
2013-05-13 20:58:00,43.7,26.8,29.96,East,90,3.7,-999.0,51,-99.99,,,0.00,Acu-Link.com,2013-05-14 00:58:00,
2013-05-13 21:13:00,43.2,26.3,29.96,ENE,67,2.2,-999.0,51,-99.99,,,0.00,Acu-Link.com,2013-05-14 01:13:00,
2013-05-13 21:28:00,41.2,28.8,29.97,East,90,0.0,-999.0,61,-99.99,,,0.00,Acu-Link.com,2013-05-14 01:28:00,
2013-05-13 21:43:00,39.0,28.6,29.97,East,90,0.0,-999.0,66,-99.99,,,0.00,Acu-Link.com,2013-05-14 01:43:00,
2013-05-13 21:58:00,38.1,28.1,29.98,ENE,67,0.0,-999.0,67,-99.99,,,0.00,Acu-Link.com,2013-05-14 01:58:00,
2013-05-13 22:14:00,37.0,27.8,29.99,NE,45,0.0,-999.0,69,-99.99,,,0.00,Acu-Link.com,2013-05-14 02:14:00,
2013-05-13 22:29:00,36.3,27.1,30.00,West,270,0.0,-999.0,69,-99.99,,,0.00,Acu-Link.com,2013-05-14 02:29:00,
2013-05-13 22:44:00,35.4,26.3,30.00,NE,45,0.0,-999.0,69,-99.99,,,0.00,Acu-Link.com,2013-05-14 02:44:00,
2013-05-13 22:59:00,34.7,26.3,30.00,East,90,0.0,-999.0,71,-99.99,,,0.00,Acu-Link.com,2013-05-14 02:59:00,
2013-05-13 23:14:00,33.8,26.7,30.01,NE,45,0.0,-999.0,75,-99.99,,,0.00,Acu-Link.com,2013-05-14 03:14:00,
2013-05-13 23:29:00,33.6,26.5,30.01,East,90,0.0,-999.0,75,-99.99,,,0.00,Acu-Link.com,2013-05-14 03:29:00,
2013-05-13 23:44:00,32.5,26.7,30.01,NNE,22,0.0,-999.0,79,-99.99,,,0.00,Acu-Link.com,2013-05-14 03:44:00,
2013-05-13 23:59:00,32.2,26.4,30.01,ESE,112,0.0,-999.0,79,-99.99,,,0.00,Acu-Link.com,2013-05-14 03:59:00,